[[{"header":{"parameterUnit":"m.s-1","parameterCategory":1,"la1":30.2991,"la2":30.254,"lo1":-89.0895,"lo2":-89.0444,"dy":0.0017,"dx":0.0017,"nx":28,"ny":28,"refTime":"2024-11-23T03:00:00:Z","depth":0,"parameterNumber":2,"parameterNumberName":"U-component_of_WINDS"},"data":[0,0,0,0,0,0,0,0,0,0,0,0,0,0,0,0,0,0,0,0,0,0,0,0,0,0,0,0,0,0,0,0,0,0,0,0,0,0,0,0,0,0,0,0,0,0,0,0,0,0,0,0,0,0,0,0,0,0,0.1366,0.1366,0,0.1361,0.1361,0.1361,0.1336,0.1335,0.1335,0.1334,0.1329,0.1329,0.133,0,0,0,0,0,0,0,0,0,0,0,0,0,0.1354,0.1355,0.1366,0.1366,0.1366,0.1361,0.1361,0.1361,0.1336,0.1335,0.1335,0.1334,0.1329,0.1329,0.133,0,0,0,0,0,0,0,0,0,0,0,0,0,0.1355,0.1355,0.1366,0.1353,0.1352,0.1361,0.1361,0.1361,0.1336,0.1335,0.1334,0.1334,0.1329,0.1329,0.133,0.1352,0,0,0.1332,0.1332,0,0,0,0,0,0,0,0,0.1355,0.1356,0.1355,0.1354,0.1353,0.1348,0.1355,0.1358,0.1336,0.1342,0.1334,0.1333,0.1336,0.1336,0.1337,0.1351,0.1351,0.1332,0.1332,0.1332,0.1333,0,0,0,0,0,0,0,0.1355,0.1356,0.1364,0.1355,0.1354,0.1347,0.1347,0.1355,0.1344,0.1342,0.134,0.134,0.1335,0.1337,0.1337,0.1351,0.1332,0.1332,0.1333,0.1333,0.1382,0.1383,0,0,0,0,0,0,0.1357,0.1356,0.1365,0.1364,0.1352,0.1348,0.1347,0.1351,0.1344,0.1342,0.134,0.1338,0.1336,0.1336,0.1336,0.136,0.1332,0.1333,0.1333,0.1381,0.1382,0.1383,0,0,0,0,0,0,0.1357,0.1358,0.1365,0.136,0.136,0.135,0.1353,0.1351,0.1352,0.1343,0.1341,0.1344,0.1335,0.1336,0.1348,0.136,0.1333,0.1334,0.138,0.1382,0.1383,0.1409,0,0,0,0,0,0,0.1357,0.1358,0.1366,0.136,0.136,0.1376,0.1354,0.1352,0.1353,0.1351,0.1346,0.1344,0.1335,0.1347,0.1348,0.136,0.1334,0.1379,0.1381,0.1382,0.1407,0.1411,0.1415,0,0,0,0,0,0.1356,0.1374,0.1367,0.1368,0.137,0.1377,0.1377,0.1366,0.1355,0.1362,0.1357,0.1344,0.1359,0.1349,0.135,0.1362,0.1378,0.138,0.1382,0.1406,0.1411,0.1415,0,0,0,0,0,0,0.1382,0.1373,0.1365,0.1381,0.138,0.1373,0.1382,0.1372,0.1374,0.1371,0.1358,0.1357,0.1371,0.1368,0.1357,0.1383,0.1366,0.1369,0.1384,0.1388,0.1392,0.1392,0.1335,0,0,0,0,0,0.139,0.1396,0.1388,0.1403,0.1403,0.1393,0.1395,0.1387,0.1385,0.1384,0.138,0.1378,0.1382,0.1386,0.1389,0.1407,0.1405,0.1417,0.142,0.1424,0.1425,0.1434,0.1439,0.139,0.139,0.139,0,0,0.1405,0.1401,0.1406,0.1408,0.1406,0.1412,0.1392,0.14,0.1405,0.1386,0.1396,0.1393,0.1391,0.1406,0.1412,0.1404,0.1439,0.1426,0.1429,0.1429,0.1437,0.1441,0.1445,0.1392,0.1391,0.1391,0,0,0.1436,0.1435,0.1446,0.1445,0.1442,0.1436,0.1439,0.1433,0.143,0.1441,0.1426,0.1432,0.144,0.1438,0.1439,0.147,0.1458,0.1472,0.1491,0.15,0.1504,0.1507,0.1517,0.1521,0.1474,0.1474,0.1474,0,0.1456,0.1465,0.1454,0.1462,0.1463,0.1447,0.1458,0.1458,0.1457,0.1458,0.1449,0.1458,0.1455,0.1469,0.1477,0.1478,0.1481,0.1472,0.1504,0.1507,0.151,0.152,0.1524,0.1476,0.1476,0.1475,0.1475,0,0.1488,0.1495,0.1505,0.1504,0.1507,0.1517,0.1507,0.1511,0.1503,0.1497,0.1508,0.1505,0.1507,0.151,0.1502,0.1523,0.1517,0.1507,0.149,0.1517,0.1525,0.1529,0.1478,0.1477,0.1477,0.1477,0,0,0.1534,0.1527,0.1531,0.153,0.1526,0.1531,0.1541,0.1543,0.1546,0.1546,0.1553,0.1561,0.155,0.1551,0.1543,0.1551,0.1575,0.1539,0.1539,0.1544,0.1596,0.1603,0.1607,0.1568,0.1568,0.1569,0.1596,0,0.1563,0.1578,0.1568,0.1585,0.1591,0.1576,0.1584,0.1582,0.1578,0.1582,0.1577,0.1581,0.1569,0.1569,0.1576,0.157,0.1584,0.1568,0.1573,0.1573,0.1572,0.1612,0.1619,0.1645,0.1599,0.16,0.16,0,0.1598,0.1599,0.1616,0.1611,0.1613,0.1621,0.1622,0.1626,0.1624,0.162,0.1621,0.1611,0.162,0.1605,0.1616,0.1606,0.1607,0.1605,0.1606,0.1604,0.1587,0.161,0.1653,0.1656,0.1606,0.1605,0.1605,0,0.1627,0.1634,0.1645,0.1645,0.1639,0.1645,0.1643,0.164,0.1642,0.1644,0.1644,0.1647,0.1648,0.165,0.1641,0.1631,0.1653,0.1638,0.1649,0.165,0.1653,0.1653,0.1695,0.1657,0.1657,0.1657,0.1657,0,0.1659,0.167,0.1658,0.1664,0.1676,0.1665,0.1677,0.1674,0.1672,0.1677,0.1665,0.167,0.1659,0.1663,0.1657,0.1667,0.1668,0.1664,0.1662,0.1664,0.1664,0.1664,0.1661,0.1658,0.1658,0.1658,0.1658,0,0.1693,0.1686,0.1696,0.1691,0.169,0.1698,0.1694,0.1699,0.1694,0.1701,0.1703,0.1694,0.1699,0.1691,0.1694,0.169,0.1703,0.1699,0.1704,0.1702,0.1714,0.1712,0.1756,0.1761,0.1721,0.1721,0.1722,0,0.1713,0.1721,0.1716,0.1719,0.1718,0.1723,0.1725,0.1715,0.1717,0.1716,0.1722,0.1725,0.1727,0.1735,0.1729,0.1732,0.1727,0.1742,0.1727,0.1729,0.1725,0.1724,0.1725,0.1745,0.1745,0.1745,0.1746,0,0.1749,0.1745,0.1748,0.175,0.1752,0.1753,0.1753,0.1756,0.1746,0.1749,0.1754,0.1756,0.1759,0.1762,0.1764,0.1762,0.1752,0.1751,0.1753,0.1755,0.1757,0.1755,0.171,0.1749,0.1749,0.1749,0.1749,0.1748,0.1775,0.1781,0.1779,0.1782,0.1782,0.1782,0.1787,0.1783,0.1786,0.1788,0.1783,0.1788,0.1787,0.1787,0.1786,0.1791,0.1784,0.1788,0.1789,0.1789,0.1791,0.1758,0.1791,0.1791,0.1791,0.1791,0.1791,0,0.1809,0.1807,0.181,0.1811,0.1814,0.1805,0.1805,0.1808,0.1813,0.1812,0.1815,0.182,0.1823,0.1818,0.182,0.1825,0.182,0.1826,0.1824,0.1824,0.1797,0.1794,0.1829,0.1829,0.1829,0.1829,0.1829,0.1829,0.1826,0.1836,0.1832,0.1841,0.1838,0.1844,0.1844,0.1845,0.1844,0.185,0.1853,0.185,0.1847,0.1849,0.1852,0.185,0.1851,0.1858,0.1855,0.183,0.1826,0.1822,0.1819,0.1859,0.1859,0.1881,0.1881,0.1881]},{"header":{"parameterUnit":"m.s-1","parameterCategory":1,"la1":30.2991,"la2":30.254,"lo1":-89.0895,"lo2":-89.0444,"dy":0.0017,"dx":0.0017,"nx":28,"ny":28,"refTime":"2024-11-23T03:00:00:Z","depth":0,"parameterNumber":3,"parameterNumberName":"V-component_of_WINDS"},"data":[0,0,0,0,0,0,0,0,0,0,0,0,0,0,0,0,0,0,0,0,0,0,0,0,0,0,0,0,0,0,0,0,0,0,0,0,0,0,0,0,0,0,0,0,0,0,0,0,0,0,0,0,0,0,0,0,0,0,2.2666,2.2666,0,2.2666,2.2666,2.2666,2.2592,2.259,2.2588,2.2586,2.2587,2.2589,2.2591,0,0,0,0,0,0,0,0,0,0,0,0,0,2.2602,2.2604,2.2666,2.2666,2.2666,2.2666,2.2666,2.2666,2.2592,2.259,2.2588,2.2585,2.2587,2.2589,2.2591,0,0,0,0,0,0,0,0,0,0,0,0,0,2.2619,2.2604,2.2666,2.2629,2.2626,2.2666,2.2666,2.2666,2.2593,2.259,2.2587,2.2584,2.2586,2.2589,2.2592,2.2667,0,0,2.26,2.2601,0,0,0,0,0,0,0,0,2.2618,2.2621,2.2635,2.2632,2.2628,2.2626,2.2644,2.2666,2.2594,2.2605,2.2586,2.2583,2.2603,2.2604,2.261,2.2667,2.2667,2.26,2.2602,2.2603,2.2604,0,0,0,0,0,0,0,2.2617,2.2621,2.2666,2.2635,2.2631,2.2613,2.2612,2.2648,2.262,2.2604,2.2599,2.26,2.26,2.2608,2.261,2.2667,2.26,2.2603,2.2604,2.2605,2.2783,2.2786,0,0,0,0,0,0,2.2621,2.262,2.2666,2.2666,2.2616,2.2616,2.2615,2.263,2.262,2.2616,2.2602,2.2596,2.2605,2.2607,2.261,2.2695,2.2603,2.2606,2.2607,2.278,2.2784,2.2787,0,0,0,0,0,0,2.262,2.2625,2.2666,2.2642,2.2645,2.262,2.2637,2.2631,2.2638,2.2618,2.2613,2.2615,2.2602,2.2606,2.2653,2.2695,2.2607,2.2609,2.2776,2.2781,2.2785,2.2869,0,0,0,0,0,0,2.2618,2.2625,2.2654,2.2643,2.2647,2.2709,2.264,2.2633,2.2643,2.2635,2.2629,2.2625,2.26,2.2649,2.2655,2.2697,2.2612,2.2773,2.2779,2.2784,2.2863,2.2876,2.2888,0,0,0,0,0,2.2616,2.2679,2.2656,2.2662,2.2682,2.2712,2.2714,2.2684,2.2647,2.2675,2.2662,2.2625,2.2689,2.2654,2.2661,2.2704,2.277,2.2777,2.2783,2.2857,2.2873,2.2887,0,0,0,0,0,0,2.2697,2.2677,2.2651,2.2712,2.2714,2.2699,2.2734,2.2703,2.2716,2.2708,2.2671,2.267,2.2723,2.2718,2.268,2.2775,2.2723,2.2731,2.2776,2.2792,2.2804,2.2804,2.2614,0,0,0,0,0,2.2722,2.2747,2.2728,2.2784,2.2786,2.276,2.2772,2.2748,2.2749,2.275,2.274,2.2743,2.2763,2.2777,2.2795,2.2861,2.2858,2.2894,2.2907,2.2917,2.2925,2.2958,2.2973,2.281,2.281,2.2809,0,0,2.2774,2.2765,2.2784,2.28,2.2798,2.2825,2.2761,2.2793,2.2813,2.2755,2.2798,2.2791,2.2791,2.2847,2.2872,2.2845,2.2969,2.2926,2.2934,2.2936,2.2966,2.2982,2.2996,2.2814,2.2813,2.2813,0,0,2.2881,2.2878,2.2923,2.2923,2.2921,2.2903,2.2914,2.2903,2.2896,2.2938,2.2895,2.2917,2.2954,2.2955,2.296,2.3066,2.3032,2.3073,2.3138,2.3171,2.3184,2.3195,2.3231,2.3245,2.3081,2.3081,2.3081,0,2.2946,2.2985,2.295,2.2984,2.2991,2.2939,2.2983,2.2985,2.299,2.2996,2.2966,2.3009,2.3005,2.306,2.3086,2.3093,2.3103,2.3073,2.3185,2.3196,2.3206,2.324,2.3254,2.3086,2.3085,2.3085,2.3084,0,2.3063,2.3091,2.3127,2.3131,2.3142,2.3182,2.3153,2.3169,2.3144,2.3129,2.3172,2.3166,2.318,2.3191,2.3168,2.3243,2.3226,2.3191,2.3138,2.3227,2.3258,2.3271,2.3093,2.3091,2.309,2.3088,0,0,2.3223,2.3206,2.322,2.322,2.3213,2.3234,2.327,2.3283,2.3297,2.3302,2.333,2.3361,2.3328,2.3334,2.331,2.3339,2.3421,2.33,2.3299,2.3321,2.3501,2.3527,2.3543,2.3398,2.3401,2.3403,2.3501,0,2.3326,2.3386,2.3355,2.342,2.3443,2.3393,2.3424,2.3423,2.341,2.3428,2.3413,2.3435,2.339,2.3393,2.342,2.3406,2.3456,2.3398,2.3424,2.3426,2.3425,2.356,2.3587,2.368,2.3513,2.3515,2.3517,0,2.3455,2.3463,2.3529,2.3516,2.3524,2.3553,2.3561,2.358,2.3577,2.3565,2.3571,2.354,2.3574,2.3521,2.3567,2.3528,2.3536,2.3531,2.3534,2.3535,2.3476,2.3563,2.3709,2.3723,2.3536,2.3534,2.3533,0,2.3563,2.3591,2.3633,2.3635,2.3621,2.3642,2.3637,2.3632,2.3641,2.3648,2.3654,2.3666,2.3672,2.3682,2.3655,2.3619,2.3704,2.3649,2.3694,2.3695,2.3714,2.3713,2.3863,2.3722,2.3721,2.3721,2.3721,0,2.3681,2.3723,2.3681,2.3707,2.3752,2.3716,2.3762,2.3752,2.3747,2.377,2.3727,2.375,2.3712,2.3731,2.371,2.375,2.3754,2.3745,2.3739,2.3748,2.3749,2.3753,2.3746,2.3725,2.3724,2.3723,2.3723,0,2.381,2.3784,2.3826,2.3808,2.3805,2.3839,2.3823,2.3846,2.3829,2.3859,2.3864,2.3837,2.3857,2.383,2.3848,2.3833,2.3888,2.3873,2.3889,2.3884,2.393,2.3926,2.4087,2.4106,2.3954,2.3955,2.3956,0,2.3887,2.3917,2.3902,2.3913,2.3911,2.3931,2.3939,2.3904,2.3915,2.3913,2.3936,2.3952,2.3962,2.3996,2.3978,2.3991,2.3975,2.4031,2.3977,2.3985,2.3974,2.3973,2.3975,2.4042,2.4043,2.4045,2.4046,0,2.4025,2.401,2.4023,2.4031,2.4042,2.4048,2.405,2.4062,2.4025,2.4039,2.4058,2.4066,2.4082,2.4098,2.4106,2.4101,2.4068,2.4063,2.4074,2.4084,2.4091,2.4087,2.3918,2.406,2.4058,2.4057,2.4057,2.4056,2.4129,2.4153,2.4145,2.4161,2.4158,2.4161,2.4181,2.4165,2.418,2.419,2.4169,2.4192,2.4187,2.4194,2.4193,2.4211,2.4186,2.4203,2.4207,2.4211,2.4217,2.4089,2.4212,2.4212,2.4211,2.4211,2.4211,0,2.4264,2.4256,2.427,2.4274,2.4286,2.4252,2.4252,2.4264,2.4285,2.4283,2.4294,2.4314,2.4329,2.4312,2.4324,2.4341,2.4326,2.4345,2.4343,2.4342,2.4239,2.4228,2.4357,2.4357,2.4357,2.4357,2.4357,2.4357,2.4335,2.4373,2.4357,2.4393,2.4385,2.4406,2.4409,2.4411,2.4409,2.4433,2.4445,2.4433,2.4424,2.4435,2.4446,2.4441,2.4447,2.4471,2.4461,2.4364,2.435,2.4336,2.4325,2.4473,2.4473,2.4562,2.4563,2.4564]}]]